EW4888 Weather Reports


Display with metric or nautical units.
time (UTC)temp
F
wind
direction
speed
MPH
gust
MPH
rain 1hr
in
rain 24hr
in
rain mn
in
humidity
%
barometer
mb
20181211091123 27 202 4.0 5.0 0.00 0.00 0.00 83 1021.0
20181211090126 27 202 3.0 5.0 0.00 0.00 0.00 83 1021.0
20181211085124 28 202 4.0 6.0 0.00 0.00 0.00 83 1021.1
20181211084123 27 202 4.0 6.0 0.00 0.00 0.00 83 1021.0
20181211083123 27 202 3.0 5.0 0.00 0.00 0.00 82 1021.0
20181211082123 27 202 3.0 5.0 0.00 0.00 0.00 82 1021.2
20181211081123 28 202 3.0 5.0 0.00 0.00 0.00 82 1021.1
20181211080127 28 202 3.0 5.0 0.00 0.00 0.00 82 1021.1
20181211075126 28 206 5.0 8.0 0.00 0.00 0.00 81 1021.2
20181211074123 28 222 4.0 9.0 0.00 0.00 0.00 81 1021.3
20181211073123 29 209 6.0 11.0 0.00 0.00 0.00 81 1021.4
20181211072123 29 216 7.0 10.0 0.00 0.00 0.00 81 1021.6
20181211071123 29 221 8.0 12.0 0.00 0.00 0.00 81 1021.7
20181211070123 29 209 6.0 13.0 0.00 0.00 0.00 81 1021.7
20181211065123 29 225 6.0 9.0 0.00 0.00 0.00 81 1021.6
20181211064123 29 225 7.0 11.0 0.00 0.00 0.00 81 1021.5
20181211063123 29 225 5.0 9.0 0.00 0.00 0.00 81 1021.7
20181211062123 29 225 6.0 10.0 0.00 0.00 0.00 81 1021.9
20181211061123 29 225 5.0 9.0 0.00 0.00 0.00 81 1021.9
20181211060124 29 225 6.0 8.0 0.00 0.00 0.00 81 1021.9
20181211055124 29 225 2.0 7.0 0.00 0.00 0.00 81 1021.7
20181211054123 29 225 6.0 9.0 0.00 0.00 0.00 81 1022.0
20181211053123 29 225 6.0 8.0 0.00 0.00 0.00 81 1022.0
20181211052123 29 225 6.0 9.0 0.00 0.00 0.00 81 1022.2
20181211050123 29 225 4.0 7.0 0.00 0.00 0.00 81 1022.4
20181211045123 29 225 5.0 9.0 0.00 0.00 0.00 81 1022.4
20181211044123 29 225 6.0 8.0 0.00 0.00 0.00 81 1022.4
20181211043123 29 225 7.0 8.0 0.00 0.00 0.00 82 1022.5
20181211042124 29 225 7.0 9.0 0.00 0.00 0.00 82 1022.6
20181211041127 29 225 7.0 9.0 0.00 0.00 0.00 83 1022.7
20181211040123 28 225 5.0 6.0 0.00 0.00 0.00 83 1022.7
20181211035123 28 225 4.0 7.0 0.00 0.00 0.00 83 1022.9
20181211034123 28 225 0.0 8.0 0.00 0.00 0.00 84 1022.5
20181211033123 28 225 5.0 7.0 0.00 0.00 0.00 84 1022.6
20181211032123 28 225 6.0 7.0 0.00 0.00 0.00 84 1022.8
20181211031123 28 225 5.0 7.0 0.00 0.00 0.00 84 1022.9
20181211030123 28 225 5.0 7.0 0.00 0.00 0.00 84 1022.9
20181211025123 28 225 4.0 5.0 0.00 0.00 0.00 84 1022.8
20181211024123 28 225 1.0 5.0 0.00 0.00 0.00 83 1023.1
20181211023123 28 225 4.0 5.0 0.00 0.00 0.00 83 1023.1
20181211022123 28 225 4.0 5.0 0.00 0.00 0.00 83 1023.1
20181211021126 29 225 4.0 6.0 0.00 0.00 0.00 82 1023.1
20181211020123 29 225 5.0 7.0 0.00 0.00 0.00 82 1023.1
20181211015123 29 225 3.0 6.0 0.00 0.00 0.00 82 1023.1
20181211014123 29 225 5.0 6.0 0.00 0.00 0.00 82 1023.1
20181211013123 28 225 5.0 7.0 0.00 0.00 0.00 82 1023.2
20181211012124 28 225 5.0 6.0 0.00 0.00 0.00 82 1023.3
20181211011123 29 225 3.0 5.0 0.00 0.00 0.00 81 1023.5
20181211010123 29 225 2.0 4.0 0.00 0.00 0.00 81 1023.5
20181211005125 29 225 2.0 3.0 0.00 0.00 0.00 80 1023.5
20181211004124 29 225 3.0 4.0 0.00 0.00 0.00 80 1023.7
20181211003122 29 225 3.0 4.0 0.00 0.00 0.00 79 1023.5
20181211002123 30 225 2.0 4.0 0.00 0.00 0.00 79 1023.4
20181211001123 30 225 2.0 4.0 0.00 0.00 0.00 79 1023.4
20181211000123 30 225 4.0 5.0 0.00 0.00 0.00 79 1023.4
20181210235123 30 225 2.0 5.0 0.00 0.00 0.00 78 1023.5
20181210234123 31 225 3.0 4.0 0.00 0.00 0.00 78 1023.6
20181210233123 31 225 2.0 4.0 0.00 0.00 0.00 77 1023.8
20181210232123 31 225 2.0 3.0 0.00 0.00 0.00 76 1023.9
20181210231123 32 225 1.0 2.0 0.00 0.00 0.00 75 1024.0
20181210230123 32 225 1.0 3.0 0.00 0.00 0.00 74 1024.0
20181210225126 32 225 2.0 3.0 0.00 0.00 0.00 74 1023.8
20181210224123 33 225 2.0 3.0 0.00 0.00 0.00 72 1023.9
20181210223123 34 225 0.0 3.0 0.00 0.00 0.00 71 1023.8
20181210222122 35 225 3.0 6.0 0.00 0.00 0.00 70 1023.9
20181210221123 35 225 4.0 6.0 0.00 0.00 0.00 70 1024.0
20181210220123 35 225 4.0 8.0 0.00 0.00 0.00 69 1024.0
20181210215124 36 225 6.0 9.0 0.00 0.00 0.00 67 1023.9
20181210214123 36 225 6.0 9.0 0.00 0.00 0.00 66 1023.7
20181210213123 37 225 5.0 7.0 0.00 0.00 0.00 65 1023.7
20181210212123 37 225 5.0 9.0 0.00 0.00 0.00 66 1023.7
20181210211123 37 225 5.0 7.0 0.00 0.00 0.00 64 1023.8
20181210210123 37 225 4.0 7.0 0.00 0.00 0.00 65 1023.8
20181210205123 38 225 5.0 8.0 0.00 0.00 0.00 63 1023.8
20181210204143 38 243 5.0 8.0 0.00 0.00 0.00 62 1023.9
20181210203123 38 247 5.0 8.0 0.00 0.00 0.00 62 1023.9
20181210202123 38 247 6.0 9.0 0.00 0.00 0.00 62 1023.9
20181210201124 37 247 7.0 9.0 0.00 0.00 0.00 62 1023.9
20181210200123 37 247 7.0 9.0 0.00 0.00 0.00 62 1023.9
20181210195123 38 247 5.0 7.0 0.00 0.00 0.00 62 1024.1
20181210194126 38 258 5.0 7.0 0.00 0.00 0.00 62 1024.2
20181210193123 37 270 4.0 7.0 0.00 0.00 0.00 63 1024.3
20181210192123 37 270 5.0 7.0 0.00 0.00 0.00 63 1024.5
20181210191123 37 270 4.0 7.0 0.00 0.00 0.00 63 1024.6
20181210190123 36 270 4.0 7.0 0.00 0.00 0.00 64 1024.6
20181210185122 36 270 3.0 6.0 0.00 0.00 0.00 63 1024.7
20181210184123 36 270 2.0 4.0 0.00 0.00 0.00 64 1025.0
20181210183126 34 270 2.0 5.0 0.00 0.00 0.00 66 1025.2
20181210182123 34 270 3.0 5.0 0.00 0.00 0.00 66 1025.3
20181210181123 33 270 3.0 4.0 0.00 0.00 0.00 67 1025.3
20181210180123 32 270 3.0 4.0 0.00 0.00 0.00 68 1025.3
20181210175123 32 270 3.0 5.0 0.00 0.00 0.00 68 1025.7
20181210174123 33 270 4.0 5.0 0.00 0.00 0.00 69 1025.7
20181210173123 32 270 4.0 7.0 0.00 0.00 0.00 68 1025.9
20181210172123 32 270 3.0 6.0 0.00 0.00 0.00 71 1026.2
20181210171124 31 270 3.0 4.0 0.00 0.00 0.00 73 1026.4
20181210170123 30 270 3.0 6.0 0.00 0.00 0.00 74 1026.4
20181210165123 30 270 1.0 5.0 0.00 0.00 0.00 76 1026.5
20181210164123 30 270 4.0 6.0 0.00 0.00 0.00 78 1026.6
20181210163123 29 270 3.0 6.0 0.00 0.00 0.00 78 1026.7
20181210162123 29 270 3.0 6.0 0.00 0.00 0.00 80 1026.8
20181210161127 28 270 4.0 6.0 0.00 0.00 0.00 82 1026.9
20181210160123 28 270 4.0 6.0 0.00 0.00 0.00 83 1026.9
20181210155124 28 270 3.0 5.0 0.00 0.00 0.00 85 1026.7
20181210154123 27 270 3.0 5.0 0.00 0.00 0.00 85 1026.9
20181210153122 27 270 3.0 4.0 0.00 0.00 0.00 86 1026.9
20181210152122 26 270 2.0 4.0 0.00 0.00 0.00 87 1026.9
20181210151123 26 270 1.0 3.0 0.00 0.00 0.00 88 1026.8
20181210150123 24 270 1.0 2.0 0.00 0.00 0.00 89 1026.8
20181210145122 24 270 1.0 3.0 0.00 0.00 0.00 90 1026.7
20181210144126 23 270 1.0 3.0 0.00 0.00 0.00 90 1026.6
20181210143123 21 270 0.0 0.0 0.00 0.00 0.00 91 1026.6
20181210142123 20 270 0.0 2.0 0.00 0.00 0.00 91 1026.4
20181210141123 19 270 0.0 2.0 0.00 0.00 0.00 90 1026.4
20181210140123 18 270 0.0 0.0 0.00 0.00 0.00 91 1026.4
20181210135123 17 270 0.0 0.0 0.00 0.00 0.00 83 1026.5
20181210134126 15 270 0.0 2.0 0.00 0.00 0.00 84 1026.5
20181210133123 14 270 0.0 0.0 0.00 0.00 0.00 83 1026.4
20181210132122 14 270 0.0 0.0 0.00 0.00 0.00 82 1026.4
20181210131123 14 270 0.0 0.0 0.00 0.00 0.00 82 1026.4
20181210130123 14 270 0.0 0.0 0.00 0.00 0.00 81 1026.4
20181210125123 14 270 0.0 2.0 0.00 0.00 0.00 84 1026.3
20181210124123 14 270 1.0 2.0 0.00 0.00 0.00 86 1026.1
20181210123123 14 270 0.0 0.0 0.00 0.00 0.00 82 1026.2
20181210122124 14 270 0.0 0.0 0.00 0.00 0.00 83 1026.1
20181210121126 13 270 0.0 0.0 0.00 0.00 0.00 83 1026.0
20181210120123 14 270 0.0 0.0 0.00 0.00 0.00 82 1026.0
20181210115123 13 270 0.0 0.0 0.00 0.00 0.00 77 1025.9
20181210114123 14 270 0.0 0.0 0.00 0.00 0.00 79 1026.1
20181210113123 13 270 0.0 0.0 0.00 0.00 0.00 77 1026.1
20181210112123 13 270 0.0 0.0 0.00 0.00 0.00 78 1026.0
20181210111123 14 270 0.0 0.0 0.00 0.00 0.00 79 1026.1
20181210110123 14 270 0.0 0.0 0.00 0.00 0.00 79 1026.1
20181210105122 15 270 0.0 0.0 0.00 0.00 0.00 82 1026.1
20181210104123 15 270 0.0 0.0 0.00 0.00 0.00 83 1026.1
20181210103123 15 270 0.0 0.0 0.00 0.00 0.00 84 1026.4
20181210102122 15 270 0.0 0.0 0.00 0.00 0.00 83 1026.4
20181210101123 15 270 0.0 0.0 0.00 0.00 0.00 81 1026.4
20181210100123 13 270 0.0 0.0 0.00 0.00 0.00 77 1026.4
20181210095126 14 270 0.0 0.0 0.00 0.00 0.00 78 1026.6
20181210094123 14 270 0.0 0.0 0.00 0.00 0.00 80 1026.5
20181210093122 15 270 0.0 0.0 0.00 0.00 0.00 82 1026.7
20181210092122 14 270 0.0 0.0 0.00 0.00 0.00 79 1026.6